GFSNW_con_3kmhel_054.txt.gz
Helicity
68 57 26 10 2 24 91 104 172 41 28 22 -1 -10 16 52 63 46 33 8 49 8 -2 6 23 62 71 42 38 60 78 60 104 101 118 134 122 139 168 161 161 159 136 55
67 57 30 5 7 40 78 136 128 49 38 71 21 1 10 49 60 43 50 61 72 34 13 10 18 55 70 78 90 57 61 96 95 79 76 104 105 105 134 145 111 97 103 76
68 60 35 6 9 56 74 144 209 87 45 31 15 -5 1 25 70 50 48 51 56 48 44 34 6 28 36 44 87 126 112 119 95 75 57 83 93 107 99 110 64 94 139 75
65 61 46 12 11 51 76 125 152 103 119 45 2 -9 -10 -1 93 75 74 58 69 46 44 44 39 43 49 67 54 82 67 63 65 75 86 74 70 78 114 121 102 86 111 80
62 57 50 25 28 70 96 160 136 76 70 33 18 -1 -25 -0 86 91 73 56 76 56 50 55 34 36 48 44 61 59 68 54 60 56 65 46 61 56 72 63 66 -25 52 76
71 62 43 29 44 66 123 72 63 75 52 64 70 33 -4 -17 101 76 64 47 62 69 61 55 43 7 35 35 52 88 79 77 74 49 70 62 49 31 150 167 163 139 35 211
74 62 51 44 55 66 59 76 80 95 107 93 86 13 -2 -26 101 80 69 75 76 51 76 39 36 73 64 60 67 67 78 107 88 47 62 76 35 41 50 61 58 106 75 89
79 65 58 63 61 72 32 37 58 75 109 58 50 -3 -1 -26 57 88 66 65 79 86 55 71 71 71 61 56 47 61 68 75 73 57 39 23 36 31 8 31 31 28 31 28
75 55 64 73 66 65 34 40 45 65 96 81 31 5 -26 -14 -10 71 92 77 105 85 59 69 56 50 34 38 51 75 76 95 90 65 39 18 19 29 1 17 33 55 43 33
52 45 58 62 50 53 36 38 56 72 89 47 29 40 8 -13 -26 7 93 131 106 76 64 60 57 60 42 41 31 39 49 47 59 47 39 18 8 11 19 45 25 26 11 15
32 29 34 35 26 47 37 32 37 63 59 44 23 -4 -0 -14 3 -3 83 90 117 102 90 94 79 69 69 60 38 26 32 28 27 44 39 14 1 12 13 4 20 9 10 2
15 13 29 34 30 36 31 31 7 21 16 26 17 7 -8 -13 -4 -2 45 96 112 122 88 102 82 72 66 58 43 52 37 48 37 45 27 30 21 10 5 16 13 -3 -4 2
4 20 28 23 32 33 30 -7 -7 -6 2 -12 17 21 2 -4 -9 -8 -3 73 92 117 133 117 97 71 70 49 48 60 62 67 65 60 33 31 66 63 34 22 34 31 21 19
-1 22 27 43 37 40 23 -13 3 -13 -23 -15 -0 19 31 7 1 10 18 63 85 86 93 111 92 71 82 62 63 42 53 55 45 32 6 -12 25 70 43 94 94 44 26 33
-0 14 19 36 53 88 76 1 -0 4 10 -11 -14 15 22 10 8 -3 16 42 65 64 63 73 87 65 57 41 31 78 42 56 27 8 -3 -35 -28 -2 25 44 67 119 46 61
-10 -11 -4 39 54 51 6 10 13 9 25 34 27 28 21 29 32 16 16 -10 -17 10 29 33 33 45 55 54 45 23 32 31 12 42 36 17 1 -37 18 -38 16 72 69 67
-42 -56 -20 2 -7 -26 -4 12 11 24 19 28 26 22 23 22 23 3 13 18 9 18 11 17 34 40 49 36 32 23 22 20 24 52 20 7 35 16 -2 19 44 24 84 98
-71 -55 -23 -3 20 -1 3 2 25 28 16 14 38 30 31 35 13 20 13 25 32 33 31 31 33 47 63 68 60 63 28 15 42 54 60 64 55 37 44 34 128 6 114 114
-56 -20 -3 -59 -78 -46 -14 13 30 39 24 17 62 48 37 68 39 23 25 16 35 30 32 44 38 49 77 38 46 46 11 -4 9 34 56 82 80 50 46 79 132 -32 83 122
-31 -90 -23 -38 -43 -26 -5 -2 1 17 26 42 83 99 77 97 32 11 20 22 31 37 34 53 57 69 60 9 2 -11 -16 -10 3 24 45 74 62 56 61 66 55 -43 57 105
-29 -7 -9 -25 -46 -17 -9 1 12 8 17 59 93 124 91 102 93 42 41 20 29 16 35 41 60 57 21 -1 -8 -28 -18 -16 -5 21 43 47 51 62 29 -5 22 23 46 77
-2 36 24 4 6 13 19 8 1 26 26 49 66 84 87 53 56 65 72 40 29 10 23 26 58 22 11 -20 -12 -1 1 -1 -6 5 31 43 31 24 44 68 80 66 55 77
80 52 41 20 13 46 33 14 -1 17 35 43 58 54 65 38 50 47 59 67 88 87 24 40 7 -12 -15 -29 -22 -18 -13 -1 3 -15 10 22 47 43 63 61 65 70 76 88
86 60 84 60 51 42 25 24 30 39 64 63 60 44 45 53 65 68 102 101 90 93 102 39 32 34 21 -18 -25 -27 -13 -19 -3 -0 -6 14 40 69 72 99 128 156 133 199
97 78 90 88 63 97 77 73 74 56 72 83 80 66 77 66 74 82 69 93 116 132 115 141 75 52 52 58 -9 -25 -18 -21 -15 -3 -9 -11 13 54 98 112 117 131 194 101
88 94 114 105 137 90 66 59 62 47 79 84 101 105 116 107 109 164 139 182 171 143 127 110 120 87 75 67 37 11 -12 -20 -19 6 9 -11 -6 11 57 97 119 136 98 76
104 95 106 97 120 67 44 51 50 76 102 96 126 151 129 182 170 202 190 178 162 178 146 111 96 57 67 66 36 11 14 -2 -18 5 14 -1 -1 13 33 66 135 131 159 91

GFSNW_con_3kmhel_057.txt.gz
Helicity
82 67 53 30 17 58 83 142 167 78 30 67 19 4 16 12 39 11 2 5 25 17 -7 20 37 44 82 76 84 74 96 80 166 139 120 148 125 82 129 99 79 118 83 45
78 70 49 29 15 56 96 170 170 58 33 175 93 -6 -0 2 23 34 26 26 29 9 -12 11 56 84 102 58 65 51 57 63 63 60 39 59 59 90 137 170 148 105 91 89
86 74 63 30 15 70 92 153 174 111 60 48 62 28 -17 -11 16 38 34 43 39 18 14 32 18 77 76 108 89 78 65 66 50 44 50 91 130 104 104 137 95 89 110 87
88 82 76 37 30 75 101 129 137 110 160 88 38 28 -4 -8 -24 65 56 45 53 40 28 28 31 29 37 80 104 120 104 83 78 72 76 90 89 76 88 83 75 79 79 38
91 92 74 51 41 93 106 144 158 109 110 72 70 45 36 -4 -8 21 61 43 60 48 37 45 18 20 36 44 71 74 84 74 72 87 72 61 68 73 67 49 53 15 18 48
100 89 81 71 48 72 106 90 77 111 95 104 104 87 60 7 -13 27 69 32 32 75 63 51 49 26 26 18 37 55 60 59 62 58 63 45 25 32 87 134 132 99 71 111
98 92 83 78 62 51 57 44 79 112 143 114 98 63 21 15 -6 -16 69 70 51 40 55 43 37 64 60 55 73 52 54 71 67 41 56 73 27 46 42 41 39 88 63 67
100 96 83 82 72 46 36 25 53 81 142 103 93 61 32 -19 -37 -25 28 84 74 65 48 70 64 66 56 71 78 72 60 71 73 63 48 20 19 25 33 24 47 42 27 25
102 96 88 74 48 43 20 21 32 65 129 91 66 57 15 13 -18 -31 11 63 81 72 61 60 61 58 41 41 49 66 64 67 76 65 51 25 10 13 8 24 48 31 31 22
108 84 84 64 33 29 14 15 21 52 87 61 56 60 45 5 -9 -21 -11 71 90 52 58 49 58 69 48 52 35 30 36 40 53 50 41 43 25 16 25 59 58 55 42 44
88 74 66 40 27 19 -2 -15 -14 18 21 32 29 14 10 6 3 12 -1 -2 72 92 94 73 65 63 59 64 45 36 38 45 37 43 50 63 49 21 54 31 15 3 15 -2
69 57 47 30 14 13 -12 -33 -43 -34 -15 -18 4 12 9 7 14 16 -7 6 39 119 107 108 78 63 61 55 72 58 63 48 52 45 40 33 28 7 37 35 -0 13 20 36
53 44 30 17 -1 -19 -25 -52 -74 -36 -53 -51 -19 6 15 7 5 7 1 2 3 56 88 110 95 75 65 53 52 49 51 65 66 69 74 60 -31 7 2 -22 -10 42 6 20
46 30 4 8 2 -10 -40 -64 -76 -55 -53 -9 -12 17 27 21 7 7 15 31 26 42 75 102 112 94 63 58 44 49 64 73 77 53 65 25 43 33 -21 -11 3 -4 34 43
19 -4 16 8 11 21 3 -16 -35 -34 -9 -12 -28 -6 24 45 32 26 17 22 25 33 45 81 77 71 69 68 66 63 80 84 57 37 25 12 70 84 70 34 20 -30 1 66
-17 -5 -4 9 19 -16 -68 -29 -41 -42 -9 18 28 2 17 27 28 26 24 18 14 16 15 21 43 51 45 62 66 49 16 -39 -41 38 22 10 4 -11 -32 7 27 29 11 76
-31 -36 -22 -4 -44 -106 -79 -48 -43 -22 -15 4 22 6 37 49 39 19 17 14 25 30 17 21 25 39 48 27 20 1 23 10 1 -24 -27 -14 4 9 16 7 19 28 57 87
-58 -38 -34 -60 -48 -72 -90 -89 -64 -68 -40 -37 11 1 49 46 38 26 31 11 12 15 34 20 18 21 23 24 34 47 37 27 -24 2 -16 -32 -12 -0 -6 18 16 24 52 113
-41 -52 -13 -102 -109 -80 -97 -73 -72 -72 -36 -29 -2 4 8 75 76 53 32 12 5 9 17 30 33 43 31 19 33 49 21 -11 -2 4 6 13 26 21 17 19 38 80 110 145
-31 -87 -34 -20 -89 -55 -51 -55 -26 -28 -42 -29 8 35 -3 60 48 55 53 20 19 18 11 15 32 47 -26 -8 11 16 -2 -9 -22 -22 -4 18 36 32 35 39 50 62 97 71
-46 12 2 -29 -21 -26 -5 5 9 -12 -2 -7 20 36 19 39 41 29 49 47 46 48 21 18 33 35 35 32 -10 -2 2 -10 -16 -23 -30 -33 -22 14 17 18 39 49 -1 -2
-1 15 35 9 4 20 39 32 5 22 12 3 20 26 25 26 47 28 45 38 50 64 119 61 54 31 37 63 57 15 5 8 2 -2 -4 5 -24 15 28 22 9 36 -8 45
65 85 61 40 37 83 76 48 19 20 3 9 22 18 31 39 43 60 49 66 102 136 87 98 99 99 89 78 79 70 77 61 12 -4 2 -2 -0 -19 15 33 52 61 50 64
144 145 142 96 93 86 80 52 32 21 39 42 46 50 46 62 72 87 94 100 126 143 148 104 169 144 162 161 125 89 80 71 76 55 1 -11 -6 -18 -19 26 57 66 64 62
163 109 116 117 80 114 89 77 62 46 51 58 66 74 84 82 104 104 109 116 155 149 161 193 209 134 112 127 114 96 89 70 64 77 67 -0 -22 -15 -25 2 6 47 77 68
131 95 119 107 167 121 76 57 68 29 60 62 70 90 112 103 116 156 144 227 232 257 245 215 174 140 97 74 78 81 78 76 50 41 56 36 -0 -25 -1 -16 22 34 64 100
120 118 112 101 134 70 41 40 38 37 67 60 74 97 103 180 158 175 174 236 288 259 197 149 110 101 90 107 104 99 78 68 39 21 24 31 29 -13 4 -8 -11 21 42 75

GFSNW_con_3kmhel_063.txt.gz
Helicity
102 100 96 103 102 120 116 116 127 59 9 68 30 36 7 -26 -28 -11 -9 -4 2 20 47 50 67 50 73 31 59 65 103 39 61 48 63 134 68 38 21 57 25 68 125 99
91 90 90 107 106 93 140 130 139 37 10 110 78 4 -14 -26 -30 -24 -12 -12 -12 12 12 39 45 41 67 56 68 50 94 42 83 56 28 61 61 54 75 46 82 49 74 59
93 83 81 96 85 53 112 123 111 90 45 33 25 31 27 -2 -46 -23 -16 22 12 3 17 36 32 50 51 65 69 82 86 48 81 46 62 50 45 22 12 29 70 42 30 7
68 59 66 81 76 80 104 118 109 90 127 79 33 -8 15 28 -13 -29 -24 10 39 25 3 16 32 54 55 49 44 32 65 51 59 65 59 60 49 22 14 29 18 29 7 14
64 51 32 76 86 127 106 125 111 94 112 71 54 23 34 48 -8 -20 -31 -27 44 35 48 63 29 17 50 55 52 76 67 50 55 48 46 37 35 29 23 -10 -13 -8 6 14
29 49 26 61 93 101 114 85 50 61 111 100 71 50 46 46 -4 -38 -40 -25 18 62 64 51 47 44 47 51 55 63 77 62 54 46 42 33 25 14 14 26 37 60 38 65
6 35 12 32 66 88 86 54 80 94 125 94 56 14 7 55 10 -4 -33 -26 -22 58 43 39 34 33 38 44 59 63 67 86 99 79 71 57 87 58 79 83 91 90 82 105
32 32 23 20 58 62 18 24 76 92 131 96 35 58 16 11 -15 -6 -20 -38 -27 74 44 44 39 35 32 53 70 69 85 76 79 86 71 90 41 70 98 116 140 151 150 125
47 54 73 49 74 67 51 75 50 61 110 74 43 60 29 42 20 24 -12 -36 -13 -1 2 31 14 44 76 62 66 89 89 83 82 87 104 109 155 99 85 88 79 149 124 116
26 81 87 77 76 63 86 73 102 54 75 34 47 23 29 12 25 24 -11 -28 -32 -33 -18 -24 -32 -21 94 75 66 63 74 81 77 76 112 121 154 99 63 92 155 135 96 81
56 86 69 61 76 81 91 87 113 58 17 43 -9 -21 -12 -15 11 53 4 31 -6 -30 -8 -12 -23 -31 73 73 104 85 67 76 82 86 94 88 113 85 108 117 63 52 40 28
102 93 69 75 62 50 83 65 85 93 72 23 12 -5 -19 -53 -54 -1 21 34 10 -9 18 -3 -27 -12 28 102 74 73 84 103 103 82 97 81 83 69 58 49 49 37 27 25
98 84 54 58 56 42 37 69 32 99 68 23 -37 -57 -27 -23 -55 -36 11 -11 -11 14 -16 -2 -19 -36 -22 -10 65 80 77 86 85 84 95 65 71 48 27 72 45 22 15 13
94 78 61 60 47 51 67 86 35 23 17 34 -50 -71 -80 -76 -61 -51 -32 5 -3 1 19 34 38 13 1 -7 71 91 112 103 106 77 74 62 69 66 91 44 23 14 36 34
107 85 74 67 68 78 95 48 49 11 -28 -14 -31 -31 -47 -65 -54 -47 -19 14 33 45 46 40 35 1 11 26 55 -21 85 109 88 102 86 46 37 51 35 11 16 39 36 25
119 99 107 85 90 77 86 56 2 9 35 1 -29 -51 -34 -20 -18 -11 -13 -9 5 19 25 14 5 -3 22 24 20 70 79 63 45 43 47 36 30 22 6 18 19 30 35 37
117 135 138 145 125 104 69 9 -38 -13 -5 -57 -54 -59 -68 -52 -36 -21 -11 -2 0 5 15 14 25 29 26 33 49 61 46 18 19 27 22 28 35 34 34 16 6 7 33 55
123 148 178 180 124 11 61 121 73 2 -47 -67 -56 -64 -69 -87 -83 -59 -37 -7 4 12 23 34 47 45 38 30 19 30 8 13 19 36 29 13 19 34 39 43 31 23 19 29
137 118 153 220 130 22 30 44 12 -2 -41 -65 -87 -52 -29 -76 -87 -82 -46 -29 8 3 31 38 42 57 50 41 56 40 19 22 20 37 10 9 17 19 23 27 28 31 35 32
115 180 194 114 68 100 71 19 -32 -37 -44 -50 -44 -54 -34 -54 -50 -33 -2 -4 14 20 37 52 60 59 46 86 84 67 61 39 23 31 32 14 26 0 16 38 49 43 45 29
258 171 160 150 155 122 34 14 22 -4 18 -13 -16 -15 12 -19 3 17 4 46 52 67 89 61 73 57 133 163 128 88 88 86 76 63 47 34 33 59 31 30 33 46 47 55
74 101 242 237 78 79 58 82 28 27 40 7 12 14 15 16 3 30 39 67 78 108 133 144 162 148 262 267 193 171 152 131 114 81 52 39 28 42 66 58 57 41 46 65
290 348 276 91 42 108 79 90 85 72 20 8 18 40 23 28 30 68 77 108 150 148 172 208 230 262 286 222 179 191 139 103 79 45 22 21 41 67 61 57 46 45 42 45
383 306 208 162 123 98 52 77 69 48 35 49 51 54 40 42 66 89 119 156 177 224 171 196 216 224 174 146 118 109 101 49 6 -3 21 68 96 96 83 59 47 57 59 60
317 193 196 149 92 79 71 106 101 80 39 53 57 53 47 69 81 74 129 129 122 143 181 199 174 162 149 129 106 71 52 31 25 38 67 74 81 78 69 55 61 72 86 65
248 146 156 111 186 103 102 101 87 40 32 41 45 49 57 70 92 132 115 159 146 190 206 157 136 127 101 71 50 25 35 50 54 61 72 73 68 56 47 50 53 48 62 60
225 184 139 163 112 66 90 73 52 25 37 49 39 44 69 111 107 115 153 168 188 177 136 114 79 75 63 60 67 74 70 58 55 78 81 71 69 58 47 37 30 24 46 57

GFSNW_con_3kmhel_069.txt.gz
Helicity
-59 249 91 248 80 151 106 98 22 68 45 83 56 103 55 -29 -23 -22 -19 -8 5 3 27 52 59 66 88 68 66 36 64 42 98 63 89 91 94 84 124 73 148 166 127 162
-150 62 176 220 62 157 174 124 69 68 26 73 63 56 11 -36 -29 -21 -14 -4 -6 19 6 -53 62 40 41 46 71 23 10 32 68 80 59 36 51 63 49 81 93 89 101 107
53 245 236 157 31 66 160 96 41 71 -9 -15 25 95 82 24 -54 -54 -43 -30 -25 -6 -12 68 100 80 48 65 39 40 29 34 29 24 6 11 22 32 41 87 80 91 97 134
57 289 226 140 47 -19 171 63 -1 6 51 -28 7 44 93 75 -5 -44 -40 -32 -7 -12 -15 19 77 79 99 72 52 53 44 51 43 53 39 27 16 6 18 77 60 92 46 73
94 297 211 31 -38 77 128 62 5 25 5 -6 32 58 92 85 -19 -47 -36 -30 -54 -29 8 -0 19 35 64 86 50 33 19 31 50 34 52 53 44 24 31 -27 49 30 20 8
19 264 120 96 77 209 136 77 68 30 42 27 41 55 72 61 -18 -67 -40 -12 -29 -17 10 73 75 59 60 37 54 66 54 55 57 48 40 34 24 8 12 43 82 56 48 47
60 123 76 78 45 157 131 93 68 53 37 25 5 39 70 52 -13 -25 -54 -61 -27 -12 -1 45 58 55 49 68 93 80 81 91 89 57 81 54 44 59 73 112 150 140 165 135
105 13 131 84 -25 63 97 92 58 55 52 43 54 50 61 37 -14 -43 -55 -52 -30 -17 7 -10 -25 -20 -12 54 77 57 62 94 89 101 96 91 89 73 79 102 116 147 130 142
105 47 85 -1 1 37 67 71 73 76 119 100 126 19 -3 37 25 -21 -57 -37 -23 -39 -28 -19 -13 -28 -31 -28 -24 65 74 76 90 97 106 83 69 78 88 104 91 122 123 116
107 110 105 53 26 37 59 62 87 89 90 171 153 37 20 -12 -5 -5 -29 -32 -46 -57 -28 7 15 -11 -26 -24 -25 -38 -19 32 -2 76 82 93 114 100 87 98 71 112 114 97
88 135 95 71 32 51 58 70 87 70 76 197 173 124 87 17 3 39 -3 -10 -43 -37 10 33 15 -1 1 -22 -16 -18 -9 -9 -21 -14 -24 -35 97 101 104 98 114 101 84 56
81 117 127 83 47 80 70 96 141 118 109 130 95 134 158 133 62 -8 -10 -16 4 -18 10 -1 2 17 6 32 67 6 15 6 21 56 49 29 65 136 137 137 98 59 27 16
92 138 92 52 39 55 64 135 127 180 171 171 139 145 157 159 147 71 -38 -39 -40 -34 -5 5 -2 25 33 89 54 41 26 26 54 67 102 113 222 197 145 84 62 49 48 39
75 142 76 78 47 50 71 119 120 89 100 60 114 112 93 145 113 85 32 -19 -19 -13 2 -3 3 26 10 56 46 44 35 42 64 91 128 169 199 170 105 94 73 44 21 7
84 83 73 70 34 47 111 131 100 80 23 54 89 85 120 98 73 77 74 15 5 9 3 -17 -1 1 19 31 51 49 63 63 91 76 108 132 129 110 93 89 65 38 18 15
37 31 45 29 41 99 98 95 47 41 44 74 45 53 61 60 25 29 33 11 -11 -26 -30 -30 -42 -23 8 31 38 29 64 87 83 78 76 61 52 64 62 58 58 49 51 39
72 35 32 32 34 20 73 56 57 51 48 38 56 31 52 37 9 -8 -16 -15 -35 -44 -41 -44 -22 -11 25 38 51 47 85 73 74 77 77 85 82 69 69 76 85 76 69 47
42 34 58 64 9 -33 98 132 106 84 61 49 -22 -16 -17 16 -52 -58 -32 -46 -40 -48 -34 -24 -4 13 38 50 51 95 100 94 100 72 67 62 66 80 83 70 65 68 58 43
32 58 61 155 140 102 116 116 128 94 48 -27 -25 -21 -62 -82 -89 -83 -63 -51 -29 -26 -0 11 32 45 75 64 114 190 145 129 95 73 68 78 84 80 78 68 49 31 45 26
76 122 191 147 116 103 103 116 88 70 49 17 -11 -36 -38 -80 -74 -76 -44 -29 -2 23 32 53 85 95 142 177 179 181 165 133 103 141 149 126 107 57 53 44 38 33 23 39
225 172 159 111 150 92 101 88 63 54 32 27 4 -27 4 -49 -30 -11 -14 16 28 62 72 119 133 153 137 119 145 165 184 166 143 124 91 65 40 31 39 62 92 96 78 64
193 129 141 135 113 107 89 87 95 65 11 2 12 22 4 2 -10 13 13 53 62 89 102 149 163 121 92 107 126 136 135 116 91 66 47 48 59 68 79 83 94 90 57 33
212 211 179 127 109 126 81 52 43 37 12 20 38 55 25 20 14 42 55 72 104 109 131 132 106 97 91 96 102 107 95 85 82 86 97 108 116 103 101 94 95 82 69 56
198 188 107 135 127 109 64 8 42 48 69 116 110 89 45 29 43 51 88 94 128 152 141 135 103 89 86 89 107 116 112 115 121 138 136 120 115 99 97 113 109 99 93 62
217 188 135 137 74 83 90 128 125 114 93 121 106 73 43 55 60 59 85 93 110 142 146 112 100 101 93 110 134 139 150 153 143 134 121 101 98 104 94 102 112 108 73 60
226 133 147 117 105 62 74 133 145 118 82 91 67 68 80 67 67 104 92 141 129 106 94 89 101 122 136 143 142 139 128 118 109 104 109 106 107 111 100 85 96 107 84 87
196 147 141 118 73 76 90 85 78 25 62 81 64 96 68 79 99 101 75 91 70 78 89 101 123 129 127 120 121 122 120 110 95 98 99 116 122 126 123 112 112 121 100 77

GFSNW_con_3kmhel_075.txt.gz
Helicity
-8 13 37 54 95 196 152 221 57 105 108 18 -61 -12 44 1 -31 -26 -15 -39 -34 5 21 43 49 12 25 57 81 58 61 22 20 28 79 79 69 61 63 58 67 69 53 59
6 1 40 57 186 -1 96 141 146 95 98 -40 -68 23 2 -23 -50 -39 -20 -37 -5 23 2 14 36 1 20 39 38 36 36 38 37 34 19 32 40 73 64 81 93 95 79 80
2 9 33 92 314 16 134 156 124 86 -19 -26 -42 18 4 -28 -55 -46 -37 -34 -39 -40 -41 2 -6 -29 27 34 30 50 7 50 -1 -16 -4 23 21 36 51 58 60 55 74 75
15 6 83 119 277 -6 147 102 75 59 -13 -27 -47 9 -14 -35 -64 -58 -34 -61 -65 -44 -66 -30 -35 -1 24 38 45 32 6 15 19 34 36 33 23 33 41 46 27 42 46 64
16 62 178 124 145 16 64 73 21 57 10 -80 -17 28 -9 -39 -53 -55 -53 -47 -46 -56 -56 -46 -61 -58 17 32 40 22 30 26 19 46 50 41 25 26 34 51 62 86 91 101
77 204 142 101 3 77 77 80 59 1 -10 27 29 -22 4 -29 -60 -29 -36 -14 -34 -72 -47 -52 -5 37 84 31 0 -19 6 25 6 22 59 57 32 29 18 47 74 87 114 96
166 77 6 -174 150 214 140 137 30 26 15 54 2 -16 0 -11 -22 -50 -6 -11 -24 1 -3 -10 16 53 -9 14 61 94 -32 -34 -7 13 -2 29 10 34 37 66 95 91 154 182
240 31 -25 116 465 214 255 46 64 29 64 44 35 29 47 49 25 11 -19 -7 11 -4 -12 -56 -60 -38 -52 -33 -36 -33 -47 -42 -44 -17 -6 -18 -25 13 57 85 87 117 124 148
19 119 187 223 271 219 127 52 85 50 105 94 92 67 95 64 20 22 -1 36 49 5 -16 -50 -55 -38 -54 -61 -54 -36 -55 -66 -40 -20 -8 9 -33 31 93 81 -18 109 123 123
29 55 77 182 138 140 77 153 125 65 35 179 118 83 64 61 51 12 -2 -5 -8 17 -47 -65 -58 -55 -61 -53 -49 -50 -47 -37 -20 -8 9 -8 -19 1 15 24 -17 35 74 90
-29 41 70 100 133 132 75 103 144 60 43 175 135 130 118 108 56 -20 -7 -16 -1 -39 -41 -54 -60 -75 -55 -60 -46 -43 -16 -4 4 24 33 2 8 41 56 33 26 14 27 54
-6 66 35 28 49 -4 23 82 126 114 69 109 150 142 148 118 95 62 110 -27 2 -29 -44 -38 -39 -46 -57 -45 6 -18 21 10 6 29 20 14 16 39 59 64 71 86 84 62
33 58 75 92 11 25 25 61 85 95 95 135 138 173 208 160 131 106 14 63 -12 4 20 -13 -33 -23 -6 11 0 3 -2 26 35 35 34 52 66 90 110 129 125 117 106 95
25 37 50 17 27 31 45 58 65 59 58 45 96 145 139 194 145 99 80 13 61 65 51 11 -17 -13 -4 15 25 28 33 45 58 56 46 69 66 93 118 124 131 126 117 106
31 21 35 51 53 45 78 55 68 59 41 39 94 117 154 163 136 111 104 76 66 63 21 0 -8 8 11 18 23 25 54 67 89 67 59 88 62 94 114 110 96 91 92 105
45 43 29 47 61 92 100 76 73 71 27 34 91 85 94 129 118 111 118 89 75 63 33 9 2 28 29 21 25 19 42 65 77 78 87 110 127 129 141 130 125 126 131 129
40 62 47 58 78 37 77 41 62 87 45 63 82 93 92 103 88 76 85 81 55 43 17 -10 -9 0 28 42 56 46 65 86 109 113 126 136 125 132 128 136 129 128 127 106
34 55 92 79 64 41 66 74 102 81 41 74 78 68 97 89 62 44 53 23 32 37 -8 -13 1 15 33 49 63 87 107 112 107 109 120 134 142 149 154 134 121 116 100 83
37 27 68 81 84 57 49 86 89 53 47 83 77 59 34 55 48 18 16 8 -7 -9 0 4 22 44 53 64 82 89 100 112 106 105 117 146 158 149 139 121 117 118 102 93
76 128 167 128 67 98 109 111 112 122 92 75 77 68 50 65 50 12 9 2 5 14 16 27 50 60 73 87 78 100 117 115 122 139 139 151 136 124 125 128 118 103 90 93
165 192 185 87 96 107 159 134 110 101 92 66 44 42 73 74 30 29 10 17 36 49 38 93 74 63 63 96 92 100 108 122 136 131 132 130 125 125 128 119 123 129 126 121
191 151 113 129 131 137 127 122 120 92 87 58 68 70 87 68 41 33 19 42 51 57 54 94 99 75 67 62 45 73 100 113 114 129 127 134 136 138 138 139 135 127 117 112
197 220 181 173 128 137 106 101 126 113 63 57 85 99 77 71 55 53 55 73 73 72 96 111 101 80 43 39 51 83 105 114 122 129 145 149 148 155 159 141 131 119 123 118
267 249 198 161 128 110 78 88 92 85 79 100 128 115 92 89 91 58 91 82 88 124 137 103 90 45 39 54 90 116 119 132 130 135 156 166 167 166 146 131 116 105 101 105
276 241 178 122 151 106 80 82 105 116 88 176 154 138 98 120 104 88 96 97 108 96 91 100 68 51 70 92 116 119 115 131 146 175 190 181 182 181 151 110 85 87 88 105
261 217 142 139 156 130 114 109 125 125 123 167 183 137 127 129 102 107 98 138 103 99 97 71 75 102 113 111 118 114 124 145 162 179 210 203 201 185 153 109 96 102 109 95
271 221 192 109 148 117 99 107 137 124 152 207 189 176 140 107 130 109 81 98 98 80 69 73 96 124 117 118 119 124 135 151 164 189 191 224 227 184 135 112 107 122 104 98

GFSNW_con_3kmhel_078.txt.gz
Helicity
25 24 14 58 -25 153 201 72 54 81 51 -0 -40 -61 3 9 -21 4 10 9 9 37 40 19 12 14 37 63 68 44 62 40 40 52 63 69 27 33 11 28 30 36 20 13
25 24 26 27 56 158 61 50 107 123 66 -26 -44 22 -1 26 -17 -5 -2 -30 24 35 25 27 31 32 55 60 16 28 42 21 30 41 31 26 37 55 42 34 39 58 44 43
15 24 11 47 92 133 64 75 74 64 38 15 -14 -15 -10 10 -4 -20 -25 -19 24 20 8 43 12 14 38 56 59 61 12 37 29 54 30 22 9 17 34 26 32 26 43 51
11 24 34 75 109 139 73 48 80 51 -33 -36 -8 -30 12 -3 -9 -19 -21 -55 -30 -29 -37 -7 -13 20 18 38 58 24 8 56 45 38 27 27 27 13 8 21 15 14 9 25
76 90 154 144 133 58 35 37 33 44 40 -30 -56 -29 -4 -23 -8 -12 -34 -88 -36 -38 -72 -21 -35 -36 -2 20 34 18 27 52 32 32 33 24 -0 11 2 17 35 52 67 60
259 178 171 144 67 19 34 62 21 31 1 -15 -55 4 15 -29 -30 5 -6 -26 -59 -78 -57 -51 -22 7 16 -2 8 8 1 20 18 42 19 11 14 7 -9 -22 4 49 18 53
140 40 74 -2 -12 26 48 82 18 16 21 -10 -23 10 16 -11 1 -24 15 4 -30 -15 -17 -19 -18 -2 -37 19 35 -7 -22 -16 -19 -15 -6 -10 -11 7 6 -27 -32 72 75 107
7 25 44 -4 64 135 152 85 15 10 13 -40 15 15 -2 21 31 29 7 25 37 17 -16 -73 -84 -50 -56 -28 -26 -33 -35 -38 -24 -20 -27 -24 -43 -49 -56 -58 -59 44 82 117
95 208 237 240 185 246 124 58 22 8 17 -0 60 38 48 4 -6 28 10 45 51 1 -29 -84 -95 -63 -66 -65 -75 -49 -55 -65 -37 -35 -33 -0 -27 -56 -62 -53 -72 -5 42 55
95 135 187 270 242 90 60 65 34 2 -6 90 81 46 53 45 -2 -15 3 13 -7 8 -41 -52 -57 -36 -61 -30 -37 -47 -38 -35 6 5 20 -14 -25 -14 13 -0 -4 23 49 82
19 90 128 148 141 86 47 19 53 -6 5 150 87 82 69 74 34 -37 -21 -19 -8 -51 -54 -56 -53 -59 -37 -35 -28 -12 9 27 24 28 36 22 13 19 28 33 54 57 64 79
21 34 49 101 112 112 71 35 59 64 24 81 102 108 118 98 82 13 1 -40 -9 -41 -49 -41 -42 -34 -38 -21 1 -0 10 35 36 54 48 40 37 43 61 73 85 83 89 94
35 49 16 42 74 50 43 37 86 59 63 120 116 137 167 134 96 62 -42 -55 -26 -21 -6 -28 -34 -30 -11 6 -0 18 32 68 58 51 55 56 66 75 90 102 107 106 106 96
8 11 18 -33 -22 16 33 30 69 63 44 28 87 120 106 168 116 71 66 4 32 26 31 2 -21 -22 -11 9 22 35 56 80 75 60 52 60 63 79 106 120 121 125 125 125
13 25 -2 -8 32 70 84 50 70 68 47 18 61 109 128 146 138 118 105 48 33 29 16 14 -5 10 15 21 35 44 77 89 104 74 69 83 65 82 119 137 134 136 132 128
16 13 39 45 66 99 94 55 53 74 49 20 44 79 103 141 142 129 126 102 66 51 35 23 13 27 25 29 33 27 51 64 84 90 95 95 108 115 139 143 138 133 123 112
47 61 52 72 71 109 77 26 25 75 58 29 51 75 88 102 104 87 78 78 51 45 29 10 9 5 27 42 71 54 68 89 106 118 124 130 137 158 155 156 154 151 143 138
42 51 55 77 69 78 65 43 66 73 57 48 51 60 91 102 74 60 64 28 32 33 16 1 5 16 31 37 55 80 114 126 122 132 135 139 159 174 171 172 164 157 150 138
42 54 58 72 97 104 56 49 88 72 57 43 50 47 36 97 81 66 52 32 10 4 6 11 19 40 56 48 74 91 105 125 134 138 140 155 175 163 164 167 160 156 150 145
52 79 117 103 113 47 56 107 89 91 68 63 56 72 60 75 82 52 35 23 18 19 15 38 49 47 67 85 95 109 121 111 141 161 162 175 165 159 156 158 145 147 144 116
104 128 98 74 80 98 126 102 94 92 86 61 60 73 89 50 58 58 27 24 29 45 37 82 69 61 68 97 116 117 118 139 155 157 155 153 155 155 158 149 160 149 137 150
143 109 78 98 129 142 136 131 129 86 68 58 79 96 121 91 63 56 23 47 49 58 59 93 84 68 69 74 69 78 116 140 147 142 142 143 145 152 159 153 145 151 150 132
171 205 178 150 132 154 147 145 150 109 36 63 106 157 139 117 78 65 63 63 68 71 90 91 76 79 60 48 82 99 117 130 134 135 152 152 156 169 185 171 179 154 133 108
218 240 229 142 134 124 113 73 91 87 72 94 169 182 136 120 110 78 91 79 87 99 105 81 61 65 71 87 98 121 130 133 128 133 148 162 174 184 198 212 183 159 133 86
239 229 188 127 139 104 123 108 97 96 94 210 182 150 113 140 124 88 101 100 99 81 78 62 85 92 90 107 119 126 131 140 135 162 176 177 196 233 225 202 181 146 122 109
208 218 171 118 134 114 97 110 88 108 154 190 156 157 166 158 134 120 116 150 94 85 60 94 114 108 122 140 139 138 137 139 147 167 192 189 209 227 226 199 168 153 158 158
164 124 165 108 73 46 116 107 80 114 200 208 192 201 173 138 165 134 101 101 93 78 104 105 97 125 139 136 135 140 150 162 179 185 184 196 189 179 180 176 171 186 179 180

GFSNW_con_3kmhel_084.txt.gz
Helicity
46 40 49 69 126 101 124 193 173 111 144 67 25 27 136 58 -15 88 63 51 50 47 52 34 55 55 55 64 68 54 45 44 43 56 86 106 163 124 94 32 -9 -4 -48 -60
144 121 98 98 132 64 152 170 123 85 115 -7 25 66 61 108 91 84 61 72 54 52 57 21 35 57 52 55 53 47 43 28 51 47 43 21 53 68 68 45 13 29 8 -33
121 82 79 33 68 50 115 15 -15 11 58 57 59 69 124 79 90 84 59 65 56 62 30 34 35 43 37 46 42 30 43 44 52 72 47 43 59 31 51 55 36 48 65 13
57 41 93 22 -7 4 43 23 22 6 30 37 13 67 98 53 85 98 84 75 64 59 54 64 49 45 43 41 42 27 42 68 53 29 35 33 24 31 10 -19 36 -20 22 18
-19 4 6 3 23 51 54 38 33 9 35 32 42 68 62 54 81 99 87 46 61 45 28 46 42 46 43 66 56 56 42 76 52 54 25 31 31 22 8 9 7 16 14 35
-13 26 -33 -40 6 3 18 51 56 23 5 27 44 28 70 43 84 69 69 54 18 -10 25 22 17 1 -3 13 33 29 27 38 39 47 14 17 7 15 17 8 -6 -1 -15 -21
10 -3 -2 -5 -15 -2 15 19 35 8 15 24 37 48 36 46 52 27 47 37 22 14 -8 -4 -17 -24 -32 -23 -1 11 17 6 2 -10 -11 -8 -14 -12 -11 -16 -19 -9 -20 -22
-4 24 14 44 33 4 19 32 31 18 41 38 21 18 14 29 13 35 20 27 26 -1 5 -3 -8 -13 -11 -9 -13 -17 -17 -26 -18 -20 -29 -18 -25 -22 -23 -18 -23 -13 -27 57
-20 15 -14 -8 -5 31 22 34 29 -1 37 33 27 33 37 12 21 21 13 46 27 5 -20 -23 -27 -16 -23 -17 -41 -43 -35 -40 -3 -7 20 47 8 4 -9 1 22 33 26 48
-19 3 -38 -18 -24 13 20 9 19 9 23 35 22 10 13 14 0 -27 -5 -3 -15 1 -42 -48 -36 -24 -45 10 9 -16 -14 -4 11 21 31 21 41 38 32 37 52 55 35 45
-35 -45 -7 -29 -46 20 8 -6 10 5 -6 9 19 6 1 -1 5 -13 -36 -30 -44 -67 -66 -52 -47 -36 -48 -28 -19 1 15 17 22 23 25 24 30 35 38 53 61 63 61 76
14 -25 -42 -32 28 13 6 -34 6 25 -21 0 22 12 -3 -9 -20 -34 -37 -48 -55 -70 -71 -49 -47 -26 -28 -21 1 -1 15 15 17 26 31 38 48 33 51 61 66 71 76 100
27 10 28 3 17 37 -4 -20 6 -1 13 11 14 0 -2 -12 -31 -42 -47 -53 -49 -40 -46 -45 -35 -11 -8 2 14 17 21 36 36 23 46 45 52 53 58 72 81 105 126 127
29 0 105 63 38 35 -7 -7 -2 4 16 11 16 40 -1 39 -20 -40 -51 -46 -27 -17 -7 -25 -17 -13 -5 4 2 22 34 50 43 38 37 54 66 74 82 103 118 131 129 131
24 13 85 113 76 33 -14 -7 3 3 6 24 35 50 54 85 93 30 -24 -38 -19 -9 -6 -4 -2 22 9 10 12 55 117 99 85 51 77 80 87 83 111 129 137 144 140 144
15 8 47 96 86 28 22 5 14 25 26 38 39 49 59 89 100 103 82 52 30 25 5 8 12 36 17 10 30 18 43 47 61 75 89 95 115 125 135 146 154 156 153 154
35 11 34 56 80 73 61 30 27 30 29 34 48 40 66 92 93 87 85 84 61 56 29 11 27 32 28 29 77 71 75 80 86 97 127 116 112 125 143 157 157 160 160 145
90 40 46 74 97 124 76 43 42 29 37 50 52 53 50 83 80 79 95 80 68 64 63 37 35 37 38 24 38 46 82 105 106 113 113 132 147 166 164 160 155 146 153 160
99 71 42 66 101 120 106 58 45 46 53 56 48 57 47 66 104 94 81 81 55 61 47 55 40 51 47 25 44 77 104 98 105 145 140 132 146 158 153 151 152 156 160 184
95 58 85 56 75 99 87 77 61 61 98 102 60 85 62 52 91 104 87 74 76 56 53 71 56 45 33 58 86 103 128 137 173 170 135 140 147 148 158 154 152 169 174 177
65 106 100 61 50 62 91 88 69 81 55 61 86 128 91 65 98 107 83 90 74 70 75 77 59 51 42 64 135 139 155 168 137 143 164 167 164 167 157 147 162 178 190 199
73 70 70 73 85 100 90 89 84 50 47 49 54 89 156 101 89 115 99 93 83 91 76 93 69 45 55 76 89 124 151 155 162 161 164 156 150 151 145 156 174 199 213 199
88 91 126 109 91 119 74 81 59 46 26 38 60 92 122 115 101 122 108 99 94 88 103 96 51 62 74 73 114 157 160 161 170 166 153 149 136 147 165 165 181 188 173 167
162 163 145 139 135 88 46 66 70 47 28 29 85 95 91 123 120 110 120 121 105 116 112 65 64 55 78 110 146 178 146 144 156 154 156 151 159 160 175 194 199 191 181 179
199 184 206 147 183 176 84 31 52 37 43 89 91 87 81 99 134 125 148 124 125 94 80 67 57 99 135 155 176 169 154 149 150 149 151 166 180 176 164 184 169 170 172 170
221 263 288 197 160 132 52 27 35 29 55 80 94 84 82 87 136 146 120 166 122 90 44 63 123 136 150 175 165 149 141 148 152 151 162 173 176 166 155 146 156 149 155 156
344 318 297 267 218 154 123 32 52 39 74 106 94 99 110 109 113 153 117 113 93 87 80 104 121 140 169 167 158 135 133 143 144 155 166 162 162 157 162 149 133 128 121 129

GFSNW_con_3kmhel_087.txt.gz
Helicity
39 48 39 23 -7 16 87 156 85 71 72 50 57 99 95 147 89 77 44 41 38 46 56 57 44 49 57 33 26 57 40 55 62 73 78 117 116 152 113 45 -10 41 2 21
-12 32 34 -5 -37 -33 29 114 42 71 61 -15 38 190 74 90 134 71 84 53 45 52 56 66 38 52 58 48 45 29 25 47 83 59 52 25 90 102 117 79 89 34 -13 -26
-2 38 35 2 -12 48 142 52 19 -6 64 46 125 99 138 109 98 57 57 48 39 56 30 34 37 40 50 56 57 42 47 35 46 41 37 45 56 61 62 44 31 14 39 1
-4 18 2 -86 -28 -11 44 -2 31 29 11 51 43 59 116 47 73 90 80 53 42 66 48 29 36 46 62 50 38 37 54 68 37 23 26 15 21 24 24 34 28 8 7 10
-47 -26 -58 -29 -47 -42 19 45 27 41 30 40 40 68 63 46 63 95 43 31 48 53 26 38 37 54 72 82 71 49 43 62 46 66 11 24 35 11 11 6 14 -1 11 21
-57 -30 -16 11 11 -20 39 40 19 32 35 30 42 33 49 39 84 41 37 53 24 14 23 29 20 12 13 26 56 54 46 40 34 40 14 24 21 3 6 2 -5 14 -9 -13
-56 -26 -26 2 35 31 42 48 37 38 32 16 9 22 9 8 27 17 29 38 28 11 28 43 11 -11 -14 -13 -9 14 27 4 -9 -13 -10 5 -22 -18 -14 -4 -15 -13 -11 -15
-71 -61 -74 -18 -16 9 52 49 35 36 45 11 1 -7 -19 -24 -25 -11 -4 4 13 23 35 2 -1 -13 -10 -25 -19 -14 -12 -22 -14 3 -4 -17 -13 -22 -19 -12 -17 -11 -4 13
32 -38 -72 4 18 19 51 36 40 40 50 -3 2 -13 6 -22 -23 -22 -17 0 22 26 4 -13 -21 -15 -28 -16 -24 -34 -26 -16 -3 -1 30 43 -4 18 3 3 12 33 33 41
63 2 -49 58 67 88 30 45 28 61 9 3 44 -1 -40 -20 -19 -48 -40 -35 -24 -14 -22 -26 -25 -14 -24 26 24 -1 -5 -2 21 34 40 27 45 44 25 36 51 53 53 61
19 35 23 -27 47 79 38 8 19 38 -15 -9 3 8 11 -12 -23 -41 -69 -45 -52 -57 -34 -28 -29 0 -20 -12 -9 -3 4 11 25 26 33 23 35 39 44 52 49 54 64 67
22 10 26 41 17 54 26 14 11 33 -19 -30 -41 -44 -19 -8 -13 -14 -36 -37 -49 -50 -36 -38 -31 -4 -13 -12 12 -2 12 12 21 35 41 40 47 28 40 42 51 61 67 84
31 17 25 14 68 53 23 17 19 -20 -15 -9 -2 -8 -42 -15 -10 -23 -16 -44 -47 -32 -31 -35 -28 -2 -14 3 11 13 23 27 32 13 53 41 49 52 45 54 73 90 112 129
52 36 28 53 22 66 38 34 28 9 14 15 8 22 6 13 -31 -26 -32 -38 -5 -12 -9 9 3 5 21 16 20 25 53 63 42 33 27 35 54 67 82 99 111 125 138 148
52 62 38 12 26 30 56 41 28 20 29 38 30 16 29 52 59 26 21 22 32 36 29 31 36 51 27 32 32 62 124 81 94 38 86 53 98 88 96 119 129 140 142 147
58 71 50 20 3 13 20 39 42 48 26 31 48 40 38 62 68 75 71 58 59 64 56 50 51 75 53 40 46 34 54 30 29 59 86 101 119 112 118 131 147 149 154 149
51 67 53 42 19 44 67 77 47 29 31 47 38 33 47 83 90 77 67 73 76 79 71 61 82 69 69 65 75 67 75 68 95 108 119 110 113 136 127 141 147 155 141 137
60 79 73 85 104 77 60 67 56 33 52 62 49 41 32 57 87 86 90 75 74 79 100 83 71 70 83 48 48 58 90 100 101 115 138 172 170 152 145 146 140 129 126 128
90 95 55 65 83 74 87 84 58 74 80 54 50 52 56 34 69 85 71 86 78 96 93 108 85 89 89 36 49 74 84 80 102 164 167 168 150 141 138 124 116 120 120 135
80 67 69 104 93 73 45 68 67 63 106 161 118 136 88 45 41 62 86 81 108 85 77 91 109 81 89 52 50 57 96 139 188 219 182 152 136 123 116 115 125 141 144 156
76 102 103 79 54 82 97 74 76 60 32 37 71 87 102 75 69 60 72 96 101 95 82 109 73 61 75 58 136 142 149 167 182 192 171 154 154 154 147 144 153 158 165 187
96 96 75 67 105 134 143 153 116 65 50 45 30 49 100 102 104 84 73 90 99 108 93 94 67 52 78 76 101 142 169 208 215 173 163 158 155 153 149 154 160 167 177 187
103 110 129 99 119 192 185 142 137 101 77 55 32 42 55 76 96 98 89 94 103 108 101 90 48 68 65 89 128 151 169 190 190 176 164 151 151 151 160 157 166 179 178 175
129 136 156 135 153 137 133 119 152 136 95 42 26 51 36 57 76 96 102 102 108 110 98 58 54 83 86 101 117 151 174 170 166 158 151 144 140 148 158 173 184 175 170 158
151 118 100 115 127 139 129 124 112 80 73 46 61 90 71 107 89 79 119 107 107 50 47 56 70 114 112 129 130 149 160 160 157 146 143 136 139 146 156 176 169 167 153 149
194 124 136 134 139 118 116 126 125 112 109 81 90 115 108 119 165 140 102 130 81 45 26 41 51 88 126 148 153 157 152 144 145 146 139 142 147 143 146 149 155 155 136 127
249 147 191 214 164 141 156 152 171 128 159 129 127 86 101 166 120 136 110 108 39 8 39 71 71 97 130 156 177 163 144 142 144 140 139 142 143 128 139 155 143 124 103 106